Home   Weather   MD of Lunenburg   Past weeks

Flag for Canada Past Weather in MD of Lunenburg, Nova Scotia, Canada — Yesterday and Last 2 Weeks

Now
47 °F

Cool.


Feels Like: 44 °F
Forecast: 43 / 64 °F
Wind: 6 mph from Northwest

Location: McNabs Island - AUT

Current Time: Sep 30, 2016 at 5:23:56 AM

Latest Report: Sep 30, 2016 at 4:00 AM


Visibility: N/A

Pressure: 30.51 "Hg

Humidity: 90%

Dew Point: 44 °F

Location of MD of LunenburgLocation

Past Weather in MD of Lunenburg — Graph

°F

MD of Lunenburg Temperature Yesterday

Maximum temperature yesterday: 62 °F (at 1:00 PM)
Minimum temperature yesterday: 48 °F (at 11:00 PM)
Average temperature yesterday: 56 °F

High & Low Weather Summary for the Past Weeks

 TemperatureHumidityPressure
High77 °F (Sep 21, 4:00 PM)100% (Sep 27, 10:00 PM)30.51 "Hg (Sep 27, 10:00 PM)
Low45 °F (Sep 25, 4:00 AM)34% (Sep 22, 4:00 PM)29.82 "Hg (Sep 25, 2:00 PM)
Average58 °F78%30.09 "Hg
* Reported Sep 15 4:00 AM — Sep 30 4:00 AM, MD of Lunenburg, Weather by CustomWeather, © 2016

Note: Actual official high and low records may vary slightly from our data, if they occured in-between our weather recording intervals... More about our weather records

Advertising

MD of Lunenburg Weather History for the Previous 24 Hours

Scroll right to see more
 ConditionsComfort  
Time TempWeatherWind HumidityBarometerVisibility
4:00 AM
Fri, Sep 30
47 °FCool.6 mph90%30.51 "HgN/A
3:00 AM46 °FCool.1 mph90%30.51 "HgN/A
2:00 AM47 °FCool.7 mph87%30.50 "HgN/A
1:00 AM47 °FCool.5 mph87%30.48 "HgN/A
12:00 AM47 °FCool.5 mph86%30.49 "HgN/A
11:00 PM
Thu, Sep 29
48 °FCool.6 mph84%30.49 "HgN/A
10:00 PM49 °FCool.8 mph75%30.49 "HgN/A
9:00 PM51 °FCool.8 mph72%30.47 "HgN/A
8:00 PM52 °FCool.8 mph73%30.46 "HgN/A
7:00 PM54 °FCool.8 mph69%30.44 "HgN/A
6:00 PM56 °FCool.10 mph70%30.42 "HgN/A
5:00 PM58 °FCool.8 mph71%30.41 "HgN/A
4:00 PM58 °FCool.9 mph68%30.40 "HgN/A
3:00 PM61 °FCool.14 mph61%30.38 "HgN/A
2:00 PM60 °FRefreshingly cool.14 mph57%30.38 "HgN/A
1:00 PM62 °FMild.15 mph53%30.37 "HgN/A
12:00 PM62 °FRefreshingly cool.12 mph58%30.36 "HgN/A
11:00 AM61 °FCool.12 mph66%30.35 "HgN/A
10:00 AM58 °FCool.12 mph70%30.36 "HgN/A
9:00 AM56 °FCool.8 mph81%30.36 "HgN/A
8:00 AM54 °FCool.9 mph86%30.34 "HgN/A
7:00 AM54 °FCool.9 mph84%30.34 "HgN/A
6:00 AM54 °FCool.9 mph86%30.32 "HgN/A
5:00 AM54 °FCool.8 mph82%30.31 "HgN/A
Weather by CustomWeather, © 2016

See weather overviewHow to use our weather pages